Regional Weather Roundup
Issued by NWS Upton, NY

Current Version | Previous Version | Graphics & Text | Print | Product List | Glossary Off
Versions: 1 2 3 4 5 6 7 8 9 10 11 12 13 14 15 16 17 18 19 20 21 22 23 24 25 26 27

000
ASUS41 KOKX 170308
RWROKX

REGIONAL WEATHER ROUNDUP
NATIONAL WEATHER SERVICE NEW YORK NY
1100 PM EDT WED AUG 16 2017

NOTE: "FAIR" INDICATES FEW OR NO CLOUDS BELOW 12,000 FEET WITH NO
SIGNIFICANT WEATHER AND/OR OBSTRUCTIONS TO VISIBILITY.

NYZ071-072-176-178-NJZ106-104-170400-
NEW YORK CITY METRO AREA

CITY           SKY/WX    TMP DP  RH WIND       PRES   REMARKS
Central Park   CLEAR     78  61  55 CALM      30.04R
Bronx Bot Gard   N/A     75  61  60 CALM      30.01R
LaGuardia APRT PTCLDY    80  63  55 NW3       30.00R
Kennedy INTL   PTCLDY    76  72  87 E3        30.01R
Breezy Point     N/A     75 N/A N/A W5          N/A
Newark/Liberty PTCLDY    76  61  59 NW7       30.00R
Teterboro      CLEAR     75  62  64 NW3       29.99S
$$

NYZ177-179-078>081-170400-
LONG ISLAND NEW YORK

CITY           SKY/WX    TMP DP  RH WIND       PRES   REMARKS
Jones Beach      N/A     73 N/A N/A SW2         N/A
Matinecock PT    N/A     73 N/A N/A NE2         N/A
Farmingdale    PTCLDY    75  71  87 SW3       30.01R
MacArthur/ISP  PTCLDY    73  70  90 CALM      30.01R
Shirley        CLEAR     72  68  87 CALM      30.01S
Mt Sinai Harb    N/A    N/A N/A N/A S3          N/A
Westhampton    CLEAR     64  59  83 CALM      30.02S
East Hampton   FAIR      64  62  95 CALM      30.00R
Montauk          N/A     73  68  84 CALM      30.01R
$$

NYZ052-065-067-170400-
HUDSON VALLEY

CITY           SKY/WX    TMP DP  RH WIND       PRES   REMARKS
White Plains   CLEAR     71  66  84 W3        30.02R
Larchmont Harb   N/A     73 N/A N/A N3          N/A
Croton On Huds   N/A     72 N/A N/A NE1         N/A
Newburgh       PTCLDY    72  63  73 VRB5      30.05R
Montgomery     CLEAR     65  62  90 CALM      30.03R
Poughkeepsie   CLEAR     66  62  87 CALM      30.02R
Albany         CLEAR     65  57  75 N5        30.06R
$$

NJZ001-105-106-008-010-013-015-019>022-104-170400-
NEW JERSEY

CITY           SKY/WX    TMP DP  RH WIND       PRES   REMARKS
Newark/Liberty PTCLDY    76  61  59 NW7       30.00R
Teterboro      CLEAR     75  62  64 NW3       29.99S
Caldwell       CLEAR     70  65  84 CALM      30.03R
Somerville     CLEAR     68  67  96 NW5       30.01R FOG
Linden         FAIR      75  62  64 NW3       30.01R
Perth Amboy      N/A     75 N/A N/A W6          N/A
Sussex         CLEAR     65  64  97 CALM      30.05R
Andover          N/A     65  63  93 CALM      30.06R
Trenton        CLEAR     72  68  87 CALM      30.02R
Millville      CLEAR     71  70  96 S3        30.02R FOG
Atlantic City  CLEAR     76  73  91 CALM      30.02R
Wrightstown    CLEAR     72  69  90 CALM      30.00R
Toms River     CLOUDY    71  69  93 CALM      30.02S
Belmar         CLEAR     72  69  90 SW5       30.03R
$$

PAZ047>061-062-071-170400-
EASTERN PENNSYLVANIA

CITY           SKY/WX    TMP DP  RH WIND       PRES   REMARKS
Philadelphia   PTCLDY    77  67  71 CALM      30.02R
Allentown      PTCLDY    71  64  78 N3        30.04R
Scranton       PTCLDY    65  59  81 E7        30.08R
$$

CTZ002-004>006-009-010-012-RIZ004-006-007-MAZ004-011-015-170400-
SOUTHERN NEW ENGLAND
 IN CT

CITY           SKY/WX    TMP DP  RH WIND       PRES   REMARKS
Bradley INTL   CLEAR     67  58  72 N7        30.02R
Hartford       CLEAR     75  57  53 NW7       30.01R
Danbury        MOCLDY    69  64  84 SW5       30.04R
Wtrbury/Oxford PTCLDY    66  59  78 N5        30.05R
Norwalk Harbor   N/A     73 N/A N/A N5          N/A
Bridgeport     PTCLDY    75  61  61 N3        30.00S
Meriden        CLEAR     64  61  90 CALM      30.02R
New Haven      PTCLDY    69  61  75 CALM      30.01R
Chester        NOT AVBL
Groton         CLEAR     68  62  81 CALM      29.99R
Wilimantic     PTCLDY    66  64  93 CALM      30.02R

 IN RI

CITY           SKY/WX    TMP DP  RH WIND       PRES   REMARKS
Providence     PTCLDY    71  61  70 N5        30.01R
Block Island   MOCLDY    71  65  81 W7        30.00R
Westerly       PTCLDY    68  65  90 CALM      30.00R
 IN MA

CITY           SKY/WX    TMP DP  RH WIND       PRES   REMARKS
Boston         PTCLDY    72  47  40 N10       30.01R
Worcester      PTCLDY    68  50  52 NW6       30.05R
Westfield      CLEAR     67  59  75 N5        30.03R
Provincetown   PTCLDY    63  57  81 W3        30.01R
Nantucket      MOCLDY    68  66  93 CALM      30.00R
$$

ANZ330-335-338-340-345-350-353-355-170400-
COASTAL MARINE OBSERVATIONS


STATION/POSITION TIME  SKY/WX   TEMP    WIND        PRES    VSBY  WAVE
                                AIR SEA DIR/SP/G                  HT/PER
                 (UTC)          (F)     (DEG/KT/KT) (MB)    (MI)  (FT/S)
NY HARB ENTRANCE 0150            76 76  230/ 12/ 14 1015.1          3/10
GREAT SOUTH BAY  0230            77 78  250/  8/ 10   N/A
23 SSW MONTAUK P 0150            74 73              1015.8          4/10
15 E BARNEGAT LI 0230               76                N/A           3/10
HUDSON CANYON    0150            74 75  230/  6/  8 1015.5          3/10
KINGS POINT      0230            77 73  180/  2/  4 1015.8
EXECUTION ROCKS  NOT AVBL
WESTERN LI SOUND NOT AVBL
CENTRAL LI SOUND NOT AVBL
EASTERN LI SOUND NOT AVBL
ROBBINS REEF     0230                   280/  4/  6 1016.6
$$


>>>>>>>>>>>>>>>>>>>>>>>>>>>> KEY <<<<<<<<<<<<<<<<<<<<<<<<<<<
>                                                          <
>     SKY/WX - Sky Condition/Present Weather               <
>     TMP    - Temperature in Fahrenheit                   <
>     DP     - Dew Point in Fahrenheit                     <
>     RH     - Relative Humidity in Percent                <
>     WIND   - Direction (from) and Speed in MPH           <
>     PRES   - Mean Sea Level Pressure (inches of Hg)      <
>     WCI    - Wind Chill Index                            <
>     VSB    - VISIBILITY IN MILES                         <
>     HX     - HEAT INDEX                                  <
>     TC     - TEMPERATURE IN CELSIUS                      <
>     VRB    - VARIABLE WIND DIRECTION                     <
>                                                          <
>>>>>>>>>>>>>>>>>>>>>>>>>>>> KEY <<<<<<<<<<<<<<<<<<<<<<<<<<<




USA.gov is the U.S. government's official web portal to all federal, state and local government web resources and services.